Location: Auckland
(36.8670°S, 174.7670°E)
Time: 18:48:11
(UTC+12:00)

Tiros 1 despin weight - Pass Details

Date: 26 July 2019
Orbit: 594 x 642 km, 48.2° (Epoch: 26 August)

Event Time Altitude Azimuth Distance (km) Brightness Sun altitude
Rises 01:40:21 0° 242° (WSW) 2,855 - -66.5°
Reaches altitude 10° 01:43:13 10° 223° (SW) 1,955 - -66.1°
Maximum altitude 01:46:27 19° 177° (S) 1,458 - -65.6°
Drops below altitude 10° 01:49:42 10° 131° (SE) 1,965 - -65.1°
Sets 01:52:35 0° 112° (ESE) 2,876 - -64.7°
